KC3AWA Weather Reports


time (UTC)temp
C
wind
direction
speed
KPH
gust
KPH
rain 1hr
cm
rain 24hr
cm
rain mn
cm
humidity
%
barometer
mb
20260509222842 17 233 1.6 4.8 0.00 0.99 0.99 61 1006.5
20260509222337 17 184 9.7 12.9 0.00 0.99 0.99 57 1006.4
20260509221832 17 239 8.0 11.3 0.00 0.99 0.99 58 1006.4
20260509221331 18 231 9.7 11.3 0.00 0.99 0.99 57 1006.7
20260509220831 18 155 3.2 3.2 0.00 0.99 0.99 58 1006.2
20260509220327 18 180 8.0 9.7 0.00 0.99 0.99 56 1006.2
20260509215823 18 195 16.1 20.9 0.00 0.99 0.99 57 1006.2
20260509215320 18 211 19.3 27.4 0.00 0.99 0.99 53 1006.4
20260509214817 18 167 9.7 11.3 0.00 0.99 0.99 54 1006.4
20260509214314 18 189 3.2 3.2 0.00 0.99 0.99 55 1006.1
20260509213811 18 196 8.0 11.3 0.00 0.99 0.99 54 1006.0
20260509213306 18 191 12.9 17.7 0.00 0.99 0.99 51 1005.9
20260509212804 19 191 6.4 6.4 0.00 0.99 0.99 55 1006.2
20260509212305 18 113 9.7 12.9 0.00 0.99 0.99 53 1006.4
20260509211756 18 211 16.1 17.7 0.00 0.99 0.99 53 1006.5
20260509211253 19 325 8.0 14.5 0.00 0.99 0.99 55 1006.4
20260509210750 19 254 11.3 12.9 0.00 0.99 0.99 54 1006.4
20260509210248 19 243 6.4 9.7 0.00 0.99 0.99 54 1006.7
20260509205747 18 224 8.0 11.3 0.00 0.99 0.99 55 1006.6
20260509205242 18 221 4.8 6.4 0.00 0.99 0.99 56 1006.8
20260509204738 18 200 6.4 9.7 0.00 0.99 0.99 55 1006.5
20260509204235 18 115 11.3 14.5 0.00 0.99 0.99 58 1007.0
20260509203730 18 200 8.0 11.3 0.00 0.99 0.99 56 1007.1
20260509203229 18 208 16.1 22.5 0.00 0.99 0.99 53 1007.2
20260509202724 18 291 3.2 4.8 0.00 0.99 0.99 59 1007.1
20260509202220 18 358 4.8 9.7 0.00 0.99 0.99 58 1007.0
20260509201715 19 219 12.9 14.5 0.00 0.99 0.99 57 1007.3
20260509201212 18 90 4.8 6.4 0.00 0.99 0.99 57 1007.2
20260509200708 18 207 3.2 4.8 0.00 0.99 0.99 59 1007.3
20260509200203 18 230 3.2 4.8 0.00 0.99 0.99 57 1007.3
20260509195659 19 162 16.1 17.7 0.00 0.99 0.99 55 1007.6
20260509195155 18 210 3.2 3.2 0.00 0.99 0.99 57 1007.7
20260509194655 17 209 8.0 12.9 0.00 0.99 0.99 62 1007.7
20260509194152 17 246 11.3 12.9 0.00 0.99 0.99 64 1007.7
20260509193648 17 215 6.4 9.7 0.00 0.99 0.99 63 1007.7
20260509193143 18 241 8.0 9.7 0.00 0.99 0.99 60 1007.7
20260509192640 18 160 4.8 6.4 0.00 0.99 0.99 63 1007.6
20260509192136 18 216 12.9 16.1 0.00 0.99 0.99 63 1007.5
20260509191635 17 195 1.6 3.2 0.00 0.99 0.99 65 1007.8
20260509191132 17 201 4.8 6.4 0.00 0.99 0.99 68 1007.9
20260509190629 17 316 4.8 9.7 0.00 0.99 0.99 64 1008.1
20260509190126 17 222 9.7 12.9 0.00 0.99 0.99 66 1008.1
20260509185624 17 108 9.7 12.9 0.00 0.99 0.99 68 1008.2
20260509185119 16 234 4.8 6.4 0.00 0.99 0.99 71 1008.2
20260509184618 16 196 4.8 9.7 0.00 0.99 0.99 69 1008.2
20260509184114 16 204 8.0 11.3 0.00 0.99 0.99 68 1008.1
20260509183610 17 262 4.8 4.8 0.00 0.99 0.99 67 1008.1
20260509183106 17 181 12.9 16.1 0.00 0.99 0.99 67 1008.2
20260509182602 16 225 3.2 4.8 0.00 0.99 0.99 72 1008.1
20260509182059 15 163 9.7 11.3 0.00 0.99 0.99 76 1008.1
20260509181558 15 229 8.0 11.3 0.00 0.99 0.99 75 1008.2
20260509181054 15 136 9.7 16.1 0.00 0.99 0.99 74 1008.2
20260509180550 15 235 3.2 4.8 0.00 0.99 0.99 75 1008.4
20260509180048 16 242 4.8 6.4 0.00 0.99 0.99 74 1008.4
20260509175543 15 144 4.8 4.8 0.00 0.99 0.99 80 1008.3
20260509175040 15 174 6.4 6.4 0.00 0.99 0.99 82 1008.4
20260509174536 15 159 6.4 6.4 0.18 0.99 0.99 77 1008.6
20260509174032 16 253 14.5 20.9 0.18 0.99 0.99 71 1008.5
20260509173526 15 163 3.2 4.8 0.00 0.97 0.97 86 1008.3
20260509173023 15 24 3.2 3.2 0.00 0.97 0.97 85 1009.0
20260509172520 13 321 1.6 1.6 0.00 0.97 0.97 87 1008.6
20260509172016 13 239 1.6 1.6 0.00 0.97 0.97 88 1008.6
20260509171512 13 119 4.8 9.7 0.00 0.97 0.97 89 1008.8
20260509171009 13 246 3.2 6.4 0.00 0.97 0.97 89 1008.9
20260509170504 13 223 3.2 4.8 0.00 0.97 0.97 89 1008.8
20260509170000 13 195 1.6 3.2 0.00 0.97 0.97 92 1008.8
20260509165459 12 22 0.0 0.0 0.00 0.97 0.97 95 1008.8
20260509164955 13 225 1.6 3.2 0.00 0.97 0.97 95 1008.8
20260509164451 12 224 3.2 3.2 0.00 0.97 0.97 96 1009.0
20260509163947 12 204 4.8 6.4 0.00 0.97 0.97 99 1009.0
20260509163445 11 264 1.6 1.6 0.00 0.97 0.97 98 1009.0
20260509162943 11 196 1.6 1.6 0.00 0.97 0.97 98 1009.0
20260509162443 11 310 3.2 4.8 0.00 0.97 0.97 98 1009.0
20260509161938 11 237 3.2 4.8 0.00 0.97 0.97 98 1008.9
20260509161435 11 225 1.6 1.6 0.00 0.97 0.97 98 1009.0
20260509160930 11 252 1.6 1.6 0.00 0.97 0.97 99 1008.6
20260509160426 11 300 3.2 4.8 0.00 0.97 0.97 99 1008.6
20260509155921 10 290 3.2 4.8 0.00 0.97 0.97 99 1008.4
20260509155418 10 272 1.6 3.2 0.00 0.97 0.97 98 1008.8
20260509154914 10 229 1.6 3.2 0.00 0.97 0.97 99 1009.0
20260509154411 10 203 4.8 4.8 0.00 0.97 0.97 99 1008.8
20260509153908 11 193 9.7 9.7 0.00 0.97 0.97 98 1009.0
20260509153405 10 155 3.2 4.8 0.00 0.97 0.97 99 1008.9
20260509152902 10 158 0.0 1.6 0.00 0.97 0.97 99 1008.6
20260509152358 10 195 3.2 3.2 0.00 0.97 0.97 99 1008.8
20260509151855 10 184 3.2 3.2 0.00 0.97 0.97 99 1008.6
20260509151351 10 253 1.6 1.6 0.00 0.97 0.97 99 1008.6
20260509150849 10 213 1.6 3.2 0.00 0.97 0.97 99 1008.6
20260509150347 10 204 3.2 3.2 0.00 0.97 0.97 98 1008.8
20260509145844 10 277 0.0 1.6 0.00 0.97 0.97 99 1008.8
20260509145344 10 20 0.0 0.0 0.00 0.97 0.97 99 1008.8
20260509144841 10 256 1.6 1.6 0.00 0.97 0.97 99 1008.8
20260509144338 10 149 3.2 3.2 0.00 0.97 0.97 99 1008.8
20260509143835 10 202 3.2 3.2 0.00 0.97 0.97 99 1008.8
20260509143333 10 119 1.6 3.2 0.00 0.97 0.97 99 1008.9
20260509142829 10 219 1.6 3.2 0.00 0.97 0.97 99 1008.6
20260509142325 10 250 0.0 1.6 0.00 0.97 0.97 99 1008.6
20260509141820 10 248 1.6 1.6 0.00 0.97 0.97 99 1008.6
20260509141318 10 262 0.0 1.6 0.00 0.97 0.97 99 1008.9
20260509140814 10 158 1.6 1.6 0.00 0.97 0.97 99 1008.9
20260509140311 10 125 1.6 1.6 0.00 0.97 0.97 99 1008.8
20260509135809 10 133 3.2 3.2 0.00 0.97 0.97 99 1008.6
20260509135306 9 224 3.2 3.2 0.00 0.97 0.97 99 1008.6
20260509134804 9 217 3.2 3.2 0.00 0.97 0.97 99 1008.8
20260509134301 9 278 1.6 3.2 0.00 0.97 0.97 99 1009.1
20260509133758 9 125 1.6 1.6 0.00 0.97 0.97 99 1008.9
20260509133254 9 244 0.0 1.6 0.00 0.97 0.97 99 1009.0
20260509132753 9 351 1.6 1.6 0.00 0.97 0.97 99 1009.1
20260509132252 9 276 0.0 0.0 0.00 0.97 0.97 99 1008.9
20260509131748 9 269 1.6 1.6 0.00 0.97 0.97 99 1009.0
20260509131244 9 245 0.0 1.6 0.00 0.97 0.97 99 1009.0
20260509130741 9 206 0.0 1.6 0.00 0.97 0.97 99 1009.0
20260509130236 9 99 1.6 1.6 0.00 0.97 0.97 99 1008.8
20260509125733 8 252 1.6 1.6 0.00 0.97 0.97 99 1009.0
20260509125230 8 119 1.6 3.2 0.00 0.97 0.97 99 1008.9
20260509124726 8 255 1.6 1.6 0.00 0.97 0.97 99 1009.0
20260509124223 8 187 3.2 3.2 0.00 0.97 0.97 99 1009.0
20260509123722 8 263 3.2 3.2 0.00 0.97 0.97 99 1009.2
20260509123219 8 114 1.6 3.2 0.00 0.97 0.97 99 1009.3
20260509122714 8 241 3.2 4.8 0.00 0.97 0.97 99 1009.2
20260509122211 8 186 1.6 1.6 0.00 0.97 0.97 99 1009.2
20260509121708 8 234 1.6 3.2 0.00 0.97 0.97 99 1009.3
20260509121205 8 228 1.6 3.2 0.00 0.97 0.97 99 1009.2
20260509120703 8 213 1.6 1.6 0.00 0.97 0.97 99 1009.2
20260509120201 8 265 0.0 1.6 0.00 0.97 0.97 99 1009.3
20260509115658 8 94 1.6 1.6 0.00 0.97 0.97 99 1009.3
20260509115155 8 274 0.0 1.6 0.13 0.97 0.97 99 1009.3
20260509114654 8 25 0.0 1.6 0.13 0.97 0.97 99 1009.1
20260509114153 8 159 1.6 3.2 0.13 0.97 0.97 99 1009.1
20260509113650 8 276 0.0 0.0 0.00 0.94 0.94 99 1009.3
20260509113147 8 253 0.0 1.6 0.00 0.94 0.94 99 1009.0
20260509112644 8 333 0.0 0.0 0.00 0.94 0.94 99 1009.1
20260509112141 8 292 1.6 1.6 0.00 0.94 0.94 99 1009.2
20260509111638 8 120 1.6 3.2 0.00 0.94 0.94 99 1009.2
20260509111135 8 216 3.2 3.2 0.00 0.94 0.94 99 1009.3
20260509110632 8 261 6.4 6.4 0.00 0.94 0.94 99 1009.0
20260509110129 8 157 3.2 3.2 0.00 0.94 0.94 99 1009.0
20260509105627 8 288 0.0 0.0 0.00 0.94 0.94 99 1009.0
20260509105124 8 175 1.6 3.2 0.00 0.94 0.94 98 1008.8
20260509104621 8 139 1.6 1.6 0.00 0.94 0.94 98 1009.1
20260509104118 8 198 3.2 4.8 0.00 0.94 0.94 98 1009.1
20260509103616 8 238 1.6 1.6 0.00 0.94 0.94 98 1009.1
20260509103114 8 230 1.6 1.6 0.00 0.94 0.94 99 1009.1
20260509102611 8 151 4.8 6.4 0.00 0.94 0.94 99 1009.2
20260509102108 8 223 3.2 6.4 0.18 0.94 0.94 98 1009.3
20260509101604 8 211 1.6 3.2 0.18 0.94 0.94 98 1009.3
20260509101101 8 39 0.0 1.6 0.13 0.91 0.91 98 1009.2
20260509100558 8 117 1.6 1.6 0.30 0.91 0.91 98 1009.1
20260509100055 8 326 0.0 1.6 0.18 0.89 0.89 98 1009.1
20260509095551 8 230 3.2 3.2 0.18 0.89 0.89 98 1009.3
20260509095049 8 212 4.8 4.8 0.18 0.86 0.86 98 1009.4
20260509094545 8 196 1.6 3.2 0.00 0.84 0.84 98 1009.3
20260509094043 8 280 0.0 0.0 0.13 0.84 0.84 98 1009.3
20260509093541 8 356 1.6 3.2 0.30 0.84 0.84 98 1009.2
20260509093038 8 142 0.0 1.6 0.30 0.81 0.81 98 1009.3
20260509092536 8 66 3.2 3.2 0.13 0.79 0.79 98 1009.5
20260509092035 8 184 1.6 1.6 0.30 0.79 0.79 98 1009.5
20260509091531 8 197 1.6 3.2 0.30 0.76 0.76 98 1009.7
20260509091028 8 263 1.6 3.2 0.13 0.74 0.74 98 1009.5
20260509090525 8 286 1.6 1.6 0.18 0.71 0.71 98 1009.7
20260509090023 8 217 3.2 3.2 0.18 0.71 0.71 98 1009.6
20260509085520 8 188 1.6 3.2 0.00 0.69 0.69 98 1009.5
20260509085016 8 198 1.6 1.6 0.13 0.69 0.69 98 1009.7
20260509084513 8 185 1.6 1.6 0.13 0.69 0.69 98 1009.6
20260509084010 8 203 3.2 4.8 0.30 0.66 0.66 98 1009.8
20260509083508 8 297 1.6 1.6 0.30 0.66 0.66 98 1009.6
20260509083004 8 178 1.6 1.6 0.30 0.64 0.64 98 1009.7
20260509082501 8 252 3.2 3.2 0.30 0.61 0.61 98 1009.7
20260509081958 8 212 1.6 1.6 0.30 0.58 0.58 98 1009.6
20260509081455 8 277 1.6 1.6 0.36 0.56 0.56 98 1009.7
20260509080952 8 127 4.8 6.4 0.30 0.53 0.53 98 1009.7
20260509080451 8 125 1.6 1.6 0.30 0.51 0.51 98 1009.5
20260509075948 8 334 1.6 1.6 0.18 0.48 0.48 98 1009.5
20260509075445 8 290 0.0 1.6 0.18 0.48 0.48 98 1009.5
20260509074943 8 140 1.6 3.2 0.13 0.46 0.46 98 1009.6
20260509074440 8 321 0.0 0.0 0.13 0.46 0.46 98 1009.7
20260509073936 8 150 1.6 3.2 0.00 0.43 0.43 98 1009.7
20260509073433 8 116 0.0 1.6 0.18 0.43 0.43 98 1009.6
20260509072929 8 150 1.6 1.6 0.18 0.43 0.43 98 1009.8
20260509072426 8 251 0.0 0.0 0.13 0.41 0.41 98 1009.9
20260509071923 8 190 1.6 1.6 0.30 0.41 0.41 98 1009.9
20260509071420 8 148 1.6 3.2 0.18 0.38 0.38 98 1009.8
20260509070918 8 277 0.0 0.0 0.00 0.36 0.36 98 1009.6
20260509070414 8 20 0.0 1.6 0.13 0.36 0.36 98 1009.9
20260509065909 8 168 1.6 3.2 0.13 0.36 0.36 98 1009.9
20260509065406 8 110 1.6 1.6 0.13 0.36 0.36 98 1009.8
20260509064902 8 91 1.6 1.6 0.18 0.33 0.33 98 1010.0
20260509064400 8 227 1.6 1.6 0.18 0.33 0.33 98 1010.1
20260509063857 8 185 0.0 0.0 0.00 0.30 0.30 98 1010.2
20260509063353 8 282 0.0 0.0 0.13 0.30 0.30 98 1010.1
20260509062850 8 294 0.0 0.0 0.30 0.30 0.30 98 1010.1
20260509062347 8 322 0.0 0.0 0.18 0.28 0.28 98 1010.3
20260509061844 8 354 0.0 0.0 0.00 0.25 0.25 98 1010.5
20260509061343 8 52 1.6 1.6 0.00 0.25 0.25 98 1010.6
20260509060839 8 337 0.0 0.0 0.00 0.25 0.25 98 1010.8
20260509060337 8 280 0.0 0.0 0.18 0.25 0.25 98 1010.8
20260509055831 8 165 1.6 3.2 0.18 0.25 0.25 98 1010.8
20260509055327 8 280 0.0 0.0 0.00 0.23 0.23 98 1010.9
20260509054825 8 254 1.6 1.6 0.00 0.23 0.23 98 1011.0
20260509054321 8 187 1.6 1.6 0.00 0.23 0.23 98 1010.9
20260509053820 8 288 0.0 0.0 0.00 0.23 0.23 98 1010.8
20260509053316 8 248 0.0 0.0 0.00 0.23 0.23 98 1010.8
20260509052814 8 257 0.0 1.6 0.13 0.23 0.23 98 1011.2
20260509052312 8 197 1.6 1.6 0.13 0.23 0.23 98 1011.3
20260509051809 8 291 0.0 1.6 0.18 0.20 0.20 98 1011.2
20260509051308 8 284 0.0 0.0 0.48 0.20 0.20 98 1011.2
20260509050803 8 80 3.2 3.2 0.30 0.18 0.18 98 1011.3
20260509050300 8 184 1.6 1.6 0.30 0.15 0.15 98 1011.5
20260509045757 8 11 0.0 0.0 0.30 0.13 0.13 98 1011.7
20260509045254 8 298 0.0 0.0 0.30 0.10 0.10 98 1011.7
20260509044752 8 89 1.6 1.6 0.30 0.08 0.08 98 1011.7
20260509044249 8 267 0.0 0.0 0.18 0.05 0.05 98 1011.6
20260509043745 8 204 1.6 3.2 0.13 0.03 0.03 97 1011.9
20260509043241 8 267 3.2 3.2 0.13 0.03 0.03 97 1011.7
20260509042738 8 242 1.6 1.6 0.00 0.00 0.00 97 1011.6
20260509042234 8 349 1.6 1.6 0.00 0.00 0.00 97 1011.8
20260509041731 8 273 3.2 3.2 0.00 0.00 0.00 97 1011.9
20260509041228 8 224 1.6 1.6 0.00 0.00 0.00 97 1011.9
20260509040726 8 167 1.6 3.2 0.00 0.00 0.00 97 1011.9
20260509040223 8 243 3.2 3.2 0.18 0.00 0.00 97 1012.0
20260509035719 8 223 1.6 3.2 0.18 1.19 1.19 97 1012.1
20260509035216 8 267 0.0 1.6 0.00 1.17 1.17 97 1012.3
20260509034714 8 157 1.6 3.2 0.13 1.17 1.17 97 1012.1
20260509034211 8 300 1.6 3.2 0.13 1.17 1.17 97 1012.0
20260509033708 8 229 3.2 4.8 0.18 1.14 1.14 97 1011.9
20260509033205 8 257 1.6 1.6 0.36 1.14 1.14 97 1012.1
20260509032702 8 124 1.6 3.2 0.18 1.12 1.12 97 1012.2
20260509032159 8 226 1.6 1.6 0.13 1.09 1.09 97 1012.2
20260509031656 8 229 1.6 1.6 0.13 1.09 1.09 97 1012.1
20260509031153 8 250 0.0 1.6 0.30 1.09 1.09 97 1012.3
20260509030652 8 310 0.0 0.0 0.30 1.07 1.07 97 1012.4
20260509030149 8 162 1.6 3.2 0.30 1.04 1.04 97 1012.4
20260509025645 8 108 1.6 1.6 0.18 1.02 1.02 97 1012.5
20260509025141 8 251 0.0 1.6 0.13 0.99 0.99 97 1012.5
20260509024636 8 150 1.6 3.2 0.30 0.99 0.99 97 1012.4
20260509024132 8 248 0.0 1.6 0.18 0.97 0.97 97 1012.5
20260509023631 8 157 0.0 3.2 0.13 0.94 0.94 97 1012.6
20260509023127 8 296 1.6 1.6 0.30 0.94 0.94 97 1012.7
20260509022623 8 298 1.6 3.2 0.18 0.91 0.91 96 1012.6
20260509022122 8 216 1.6 1.6 0.13 0.89 0.89 96 1012.6
20260509021618 8 233 0.0 1.6 0.30 0.89 0.89 96 1012.7
20260509021115 8 338 0.0 0.0 0.30 0.86 0.86 96 1012.8
20260509020614 8 288 0.0 1.6 0.13 0.84 0.84 96 1012.8
20260509020110 8 247 1.6 3.2 0.30 0.84 0.84 96 1012.7
20260509015609 8 328 0.0 0.0 0.18 0.81 0.81 96 1012.8
20260509015106 8 267 0.0 0.0 0.18 0.79 0.79 96 1012.4
20260509014602 8 281 0.0 0.0 0.18 0.79 0.79 96 1012.4
20260509014059 8 287 0.0 0.0 0.13 0.76 0.76 96 1012.4
20260509013556 8 289 0.0 0.0 0.30 0.76 0.76 96 1012.4
20260509013051 8 297 0.0 0.0 0.48 0.74 0.74 96 1012.4
20260509012548 8 347 0.0 0.0 0.30 0.71 0.71 95 1012.3
20260509012045 8 294 0.0 0.0 0.30 0.66 0.66 95 1012.1
20260509011543 8 294 0.0 0.0 0.18 0.64 0.64 95 1012.2
20260509011040 8 328 0.0 0.0 0.30 0.64 0.64 95 1011.9
20260509010538 8 6 0.0 0.0 0.30 0.61 0.61 95 1011.9
20260509010034 8 270 0.0 0.0 0.18 0.58 0.58 95 1012.0
20260509005532 8 271 0.0 0.0 0.30 0.58 0.58 94 1012.0
20260509005033 8 293 0.0 0.0 0.30 0.56 0.56 94 1011.7
20260509004530 8 268 0.0 0.0 0.18 0.53 0.53 94 1011.8
20260509004026 8 268 1.6 1.6 0.30 0.53 0.53 94 1011.7
20260509003525 8 241 0.0 0.0 0.30 0.51 0.51 94 1011.6
20260509003021 8 312 0.0 0.0 0.18 0.48 0.48 93 1011.6
20260509002519 8 339 0.0 1.6 0.36 0.48 0.48 93 1011.6
20260509002016 8 354 3.2 3.2 0.30 0.46 0.46 93 1011.6
20260509001514 8 328 0.0 0.0 0.43 0.43 0.43 92 1011.8
20260509001009 8 4 0.0 0.0 0.48 0.41 0.41 92 1011.9
20260509000508 8 219 1.6 1.6 0.30 0.36 0.36 91 1012.0
20260509000004 8 304 0.0 0.0 0.43 0.33 0.33 91 1012.0
20260508235502 8 245 0.0 0.0 0.61 0.30 0.30 90 1012.0
20260508234958 8 340 0.0 1.6 0.48 0.25 0.25 88 1011.9
20260508234455 9 140 1.6 3.2 0.48 0.23 0.23 86 1011.7
20260508233952 9 266 0.0 0.0 0.30 0.18 0.18 85 1011.6
20260508233452 9 71 3.2 3.2 0.13 0.15 0.15 83 1011.7
20260508232948 10 279 4.8 6.4 0.18 0.13 0.13 81 1011.5
20260508232445 10 229 1.6 3.2 0.00 0.10 0.10 77 1011.5
20260508231942 10 208 0.0 1.6 0.00 0.10 0.10 75 1011.5
20260508231439 10 186 3.2 3.2 0.00 0.10 0.10 74 1011.5
20260508230936 11 256 4.8 6.4 0.00 0.10 0.10 74 1011.5
20260508230433 11 279 0.0 1.6 0.00 0.10 0.10 74 1011.5
20260508225930 11 224 3.2 3.2 0.00 0.10 0.10 72 1011.3
20260508225427 11 134 3.2 3.2 0.00 0.10 0.10 72 1011.3
20260508224924 11 183 3.2 4.8 0.00 0.10 0.10 71 1011.4
20260508224422 11 111 4.8 9.7 0.00 0.10 0.10 74 1011.5
20260508223919 11 259 3.2 4.8 0.00 0.10 0.10 74 1011.4
20260508223417 11 205 1.6 1.6 0.00 0.10 0.10 74 1011.4